QPF
0.01 0.01 0.00 0.00 0.00 0.00 0.00 0.00 0.00 0.00 0.00 0.00 0.00 0.00 0.00 0.00 0.00 0.00 0.00 0.00 0.00 0.00 0.00 0.00 0.00 0.00 0.00 0.00 0.00 0.00 0.00 0.00 0.00 0.00 0.00 0.00 0.00 0.00 0.00 0.00 0.00 0.00 0.00 0.00
0.03 0.01 0.00 0.00 0.00 0.00 0.00 0.00 0.00 0.00 0.00 0.00 0.00 0.00 0.00 0.00 0.00 0.00 0.00 0.00 0.00 0.00 0.00 0.00 0.00 0.00 0.00 0.00 0.00 0.00 0.00 0.00 0.00 0.00 0.00 0.00 0.00 0.00 0.00 0.00 0.00 0.00 0.00 0.00
0.00 0.00 0.00 0.00 0.00 0.00 0.00 0.00 0.00 0.00 0.00 0.00 0.00 0.00 0.00 0.00 0.00 0.00 0.00 0.00 0.00 0.00 0.00 0.00 0.00 0.00 0.00 0.00 0.00 0.00 0.00 0.00 0.00 0.00 0.00 0.00 0.00 0.00 0.00 0.00 0.00 0.00 0.00 0.00
0.01 0.00 0.01 0.00 0.00 0.00 0.00 0.00 0.00 0.00 0.00 0.00 0.00 0.00 0.00 0.00 0.00 0.00 0.00 0.00 0.00 0.00 0.00 0.00 0.00 0.00 0.00 0.00 0.00 0.00 0.00 0.00 0.00 0.00 0.00 0.00 0.00 0.00 0.00 0.00 0.00 0.00 0.00 0.00
0.00 0.00 0.01 0.01 0.00 0.00 0.00 0.00 0.00 0.00 0.00 0.00 0.00 0.00 0.00 0.00 0.00 0.00 0.00 0.00 0.00 0.00 0.00 0.00 0.00 0.00 0.00 0.00 0.00 0.00 0.00 0.00 0.00 0.00 0.00 0.00 0.00 0.00 0.00 0.00 0.00 0.00 0.00 0.00
0.03 0.02 0.01 0.00 0.00 0.00 0.00 0.00 0.00 0.00 0.01 0.01 0.00 0.00 0.00 0.00 0.00 0.00 0.00 0.00 0.00 0.00 0.00 0.00 0.00 0.00 0.00 0.00 0.00 0.00 0.00 0.00 0.00 0.00 0.00 0.00 0.00 0.00 0.00 0.00 0.00 0.00 0.00 0.00
0.02 0.05 0.05 0.01 0.01 0.00 0.01 0.02 0.04 0.04 0.04 0.00 0.00 0.00 0.00 0.00 0.00 0.00 0.00 0.00 0.00 0.00 0.00 0.00 0.00 0.00 0.00 0.00 0.00 0.00 0.00 0.00 0.00 0.00 0.00 0.00 0.00 0.00 0.00 0.00 0.00 0.00 0.00 0.00
0.02 0.01 0.01 0.04 0.02 0.01 0.00 0.02 0.02 0.01 0.00 0.00 0.00 0.00 0.00 0.00 0.00 0.00 0.00 0.00 0.00 0.00 0.00 0.00 0.00 0.00 0.00 0.00 0.00 0.00 0.00 0.00 0.00 0.00 0.00 0.00 0.00 0.00 0.00 0.00 0.00 0.00 0.00 0.00
0.00 0.00 0.00 0.00 0.00 0.01 0.02 0.02 0.01 0.00 0.00 0.00 0.00 0.00 0.00 0.00 0.00 0.00 0.00 0.00 0.00 0.00 0.00 0.00 0.00 0.00 0.00 0.00 0.00 0.00 0.00 0.00 0.00 0.00 0.00 0.00 0.00 0.00 0.00 0.00 0.00 0.00 0.00 0.00
0.00 0.01 0.00 0.00 0.00 0.00 0.01 0.01 0.03 0.05 0.02 0.00 0.00 0.00 0.00 0.00 0.00 0.00 0.00 0.00 0.00 0.00 0.00 0.00 0.00 0.00 0.00 0.00 0.00 0.00 0.00 0.00 0.00 0.00 0.00 0.00 0.00 0.00 0.00 0.00 0.00 0.00 0.00 0.00
0.01 0.00 0.00 0.03 0.03 0.00 0.01 0.01 0.08 0.03 0.01 0.00 0.00 0.00 0.00 0.00 0.00 0.00 0.00 0.00 0.00 0.00 0.00 0.00 0.00 0.00 0.00 0.00 0.00 0.00 0.00 0.00 0.00 0.00 0.00 0.00 0.00 0.00 0.00 0.00 0.00 0.00 0.00 0.00
0.00 0.01 0.00 0.01 0.01 0.01 0.04 0.00 0.01 0.02 0.01 0.00 0.00 0.00 0.00 0.00 0.00 0.00 0.00 0.00 0.00 0.00 0.00 0.00 0.00 0.00 0.00 0.00 0.00 0.00 0.00 0.00 0.00 0.00 0.00 0.00 0.00 0.00 0.00 0.00 0.00 0.00 0.00 0.00
0.02 0.02 0.01 0.01 0.00 0.00 0.07 0.10 0.02 0.00 0.01 0.00 0.00 0.00 0.00 0.00 0.00 0.00 0.00 0.00 0.00 0.00 0.00 0.00 0.00 0.00 0.00 0.00 0.00 0.00 0.00 0.00 0.00 0.00 0.00 0.00 0.00 0.00 0.00 0.00 0.00 0.00 0.00 0.00
0.07 0.01 0.00 0.00 0.00 0.00 0.00 0.02 0.08 0.08 0.06 0.01 0.00 0.00 0.00 0.00 0.00 0.00 0.00 0.00 0.00 0.00 0.00 0.00 0.00 0.00 0.00 0.00 0.00 0.00 0.00 0.00 0.00 0.00 0.00 0.00 0.00 0.00 0.00 0.00 0.00 0.00 0.00 0.01
0.09 0.07 0.01 0.00 0.00 0.00 0.00 0.00 0.00 0.03 0.11 0.04 0.00 0.00 0.00 0.00 0.00 0.00 0.00 0.00 0.00 0.00 0.00 0.00 0.00 0.00 0.00 0.00 0.00 0.00 0.00 0.00 0.00 0.00 0.00 0.00 0.00 0.00 0.00 0.00 0.00 0.00 0.00 0.00
0.05 0.03 0.04 0.04 0.01 0.00 0.01 0.01 0.03 0.01 0.00 0.00 0.00 0.00 0.00 0.00 0.00 0.00 0.00 0.00 0.00 0.00 0.00 0.00 0.00 0.00 0.00 0.00 0.00 0.00 0.00 0.00 0.00 0.00 0.00 0.00 0.00 0.00 0.00 0.00 0.00 0.00 0.00 0.00
0.00 0.01 0.03 0.05 0.02 0.08 0.11 0.01 0.00 0.01 0.00 0.00 0.00 0.00 0.00 0.00 0.00 0.00 0.00 0.00 0.00 0.00 0.00 0.00 0.00 0.00 0.00 0.00 0.00 0.00 0.00 0.00 0.00 0.00 0.00 0.00 0.00 0.00 0.00 0.00 0.00 0.00 0.00 0.00
0.00 0.00 0.02 0.02 0.01 0.07 0.05 0.00 0.00 0.00 0.00 0.00 0.00 0.00 0.00 0.00 0.00 0.00 0.00 0.00 0.00 0.00 0.00 0.00 0.00 0.00 0.00 0.00 0.00 0.00 0.00 0.00 0.00 0.00 0.00 0.00 0.00 0.00 0.00 0.00 0.00 0.00 0.00 0.00
0.00 0.00 0.00 0.01 0.02 0.03 0.00 0.00 0.00 0.00 0.00 0.00 0.00 0.00 0.00 0.00 0.00 0.00 0.00 0.00 0.00 0.00 0.00 0.00 0.00 0.00 0.00 0.00 0.00 0.00 0.00 0.00 0.00 0.00 0.00 0.00 0.00 0.00 0.00 0.00 0.00 0.00 0.00 0.00
0.00 0.00 0.00 0.00 0.02 0.04 0.00 0.00 0.00 0.00 0.00 0.00 0.00 0.00 0.00 0.00 0.00 0.00 0.00 0.00 0.00 0.00 0.00 0.00 0.00 0.00 0.00 0.00 0.00 0.00 0.00 0.00 0.00 0.00 0.00 0.00 0.00 0.00 0.00 0.00 0.00 0.00 0.00 0.00
0.00 0.01 0.01 0.00 0.01 0.01 0.00 0.00 0.00 0.02 0.01 0.00 0.00 0.00 0.00 0.00 0.00 0.00 0.00 0.00 0.00 0.00 0.00 0.00 0.00 0.00 0.00 0.00 0.00 0.00 0.00 0.00 0.00 0.00 0.00 0.00 0.00 0.00 0.00 0.00 0.00 0.00 0.00 0.00
0.00 0.03 0.05 0.04 0.05 0.01 0.00 0.00 0.00 0.00 0.00 0.00 0.00 0.00 0.00 0.00 0.00 0.00 0.00 0.00 0.00 0.00 0.00 0.00 0.00 0.00 0.00 0.00 0.00 0.00 0.00 0.00 0.00 0.00 0.00 0.00 0.00 0.00 0.00 0.00 0.00 0.00 0.00 0.00
0.00 0.01 0.02 0.02 0.02 0.00 0.00 0.00 0.00 0.00 0.00 0.00 0.00 0.00 0.00 0.00 0.00 0.00 0.00 0.00 0.00 0.00 0.00 0.00 0.00 0.00 0.00 0.00 0.00 0.00 0.00 0.00 0.00 0.00 0.00 0.00 0.00 0.00 0.00 0.00 0.00 0.00 0.00 0.00
0.00 0.02 0.03 0.02 0.01 0.00 0.00 0.00 0.00 0.00 0.00 0.00 0.00 0.00 0.00 0.00 0.00 0.00 0.00 0.00 0.00 0.00 0.00 0.00 0.00 0.00 0.00 0.00 0.00 0.00 0.00 0.00 0.00 0.00 0.00 0.00 0.00 0.00 0.00 0.00 0.00 0.00 0.00 0.00
0.02 0.11 0.14 0.12 0.06 0.02 0.01 0.01 0.00 0.00 0.00 0.00 0.00 0.00 0.00 0.00 0.00 0.00 0.00 0.00 0.00 0.00 0.00 0.00 0.00 0.00 0.00 0.00 0.00 0.00 0.00 0.00 0.00 0.00 0.00 0.00 0.00 0.00 0.00 0.00 0.00 0.00 0.00 0.00
0.06 0.06 0.17 0.22 0.18 0.13 0.06 0.03 0.02 0.00 0.00 0.00 0.00 0.00 0.00 0.00 0.00 0.00 0.00 0.00 0.00 0.00 0.00 0.00 0.00 0.00 0.00 0.00 0.00 0.00 0.00 0.00 0.00 0.00 0.00 0.00 0.00 0.00 0.00 0.00 0.00 0.00 0.00 0.00
MSLP
1020.57 1020.62 1020.08 1020.31 1021.02 1021.18 1021.30 1021.34 1021.22 1020.58 1019.94 1019.75 1019.29 1018.46 1017.89 1017.67 1017.86 1017.92 1017.96 1017.78 1017.66 1017.55 1016.73 1017.11 1017.59 1017.81 1018.12 1018.35 1018.55 1018.62 1019.11 1019.31 1019.85 1020.47 1021.14 1021.51 1021.54 1021.84 1022.00 1022.07 1022.22 1022.45 1022.85 1023.25
1020.87 1019.56 1019.98 1020.82 1021.23 1021.46 1021.72 1021.63 1021.43 1020.84 1020.21 1020.25 1019.57 1018.62 1017.67 1017.50 1017.35 1017.01 1017.00 1016.93 1016.56 1016.63 1016.56 1016.47 1016.74 1017.15 1017.40 1017.42 1017.59 1018.21 1018.29 1018.81 1019.08 1019.46 1019.99 1020.54 1020.97 1021.23 1021.14 1021.53 1021.91 1022.07 1022.33 1022.64
1019.73 1019.39 1019.79 1020.55 1021.11 1021.61 1021.67 1021.75 1021.59 1021.36 1020.71 1020.22 1019.87 1018.63 1017.28 1016.80 1016.43 1016.00 1015.84 1015.65 1015.45 1015.21 1015.36 1015.46 1015.85 1015.96 1016.14 1016.53 1016.88 1017.15 1017.34 1017.71 1018.19 1018.76 1019.43 1020.11 1020.51 1021.00 1021.18 1021.31 1021.55 1021.51 1021.54 1021.86
1020.20 1019.39 1019.63 1020.13 1020.47 1021.06 1021.34 1021.34 1021.54 1021.62 1021.74 1021.05 1020.29 1018.44 1016.72 1016.18 1015.77 1015.36 1014.72 1014.48 1014.38 1014.46 1014.32 1014.24 1014.35 1014.78 1015.04 1015.06 1015.68 1015.95 1016.67 1016.91 1017.38 1018.01 1018.70 1018.97 1019.42 1019.77 1019.99 1020.20 1020.64 1020.82 1021.15 1021.29
1019.15 1019.15 1019.51 1019.81 1019.70 1020.64 1020.87 1020.95 1021.25 1021.63 1021.82 1021.60 1020.67 1020.15 1016.02 1015.72 1015.19 1014.53 1013.81 1013.49 1013.30 1013.21 1013.23 1013.09 1013.23 1013.48 1013.73 1014.04 1014.36 1014.70 1015.34 1016.14 1016.68 1017.10 1017.44 1018.18 1018.57 1018.79 1019.14 1019.61 1019.94 1020.40 1020.62 1020.79
1019.01 1018.77 1018.94 1018.91 1019.56 1019.87 1020.57 1021.29 1021.64 1021.94 1022.29 1021.75 1019.35 1019.96 1015.58 1015.16 1014.35 1013.72 1013.15 1012.71 1012.46 1012.28 1012.25 1012.12 1012.18 1012.38 1012.61 1013.10 1013.61 1014.02 1014.59 1014.96 1015.65 1016.29 1016.67 1016.93 1017.52 1018.15 1018.60 1018.85 1019.06 1019.49 1019.89 1020.14
1019.09 1018.74 1018.95 1018.96 1019.35 1019.90 1020.44 1021.38 1021.66 1021.99 1021.99 1020.09 1018.65 1019.19 1015.53 1014.22 1013.58 1013.30 1012.54 1012.18 1011.74 1011.66 1011.64 1011.72 1011.95 1012.04 1011.99 1012.15 1012.57 1013.16 1013.57 1013.88 1014.43 1015.12 1015.82 1015.95 1016.23 1016.97 1017.42 1017.89 1018.28 1018.76 1018.94 1019.05
1018.73 1019.04 1018.88 1019.09 1019.04 1019.23 1019.98 1020.41 1020.40 1020.76 1021.13 1019.88 1018.90 1017.59 1014.18 1013.26 1012.38 1011.89 1011.61 1011.50 1011.49 1011.48 1011.28 1011.20 1011.36 1011.39 1011.39 1011.30 1011.56 1012.06 1012.65 1012.79 1013.46 1013.98 1014.42 1015.03 1015.42 1015.80 1016.18 1016.59 1016.92 1017.20 1017.38 1017.60
1018.25 1018.48 1018.17 1018.43 1018.67 1018.99 1019.49 1019.07 1019.78 1020.42 1021.40 1020.70 1018.42 1016.10 1014.16 1013.14 1012.65 1011.97 1011.33 1010.99 1010.99 1010.99 1011.02 1010.94 1010.86 1011.17 1011.06 1010.84 1010.74 1010.98 1011.61 1012.01 1012.53 1012.86 1013.38 1014.02 1014.41 1014.74 1014.93 1015.28 1015.98 1016.21 1016.49 1016.66
1017.95 1018.34 1018.53 1018.49 1018.54 1018.29 1018.31 1019.08 1019.98 1020.24 1020.57 1020.09 1017.78 1016.20 1013.77 1012.78 1012.35 1011.74 1011.03 1010.44 1010.38 1010.54 1010.79 1010.65 1010.72 1010.79 1010.90 1010.64 1010.22 1010.56 1010.91 1011.28 1011.56 1011.96 1012.40 1012.79 1013.31 1013.87 1014.25 1014.69 1015.01 1015.17 1015.30 1015.87
1017.72 1018.64 1019.33 1018.76 1018.24 1018.11 1018.34 1018.56 1019.30 1019.05 1019.31 1018.63 1017.04 1014.53 1012.58 1011.86 1011.46 1011.07 1010.30 1010.31 1010.37 1010.41 1010.46 1010.46 1010.57 1010.66 1010.66 1010.66 1010.48 1010.34 1010.41 1010.89 1011.27 1011.59 1011.99 1012.55 1012.85 1013.08 1013.47 1013.86 1014.06 1014.33 1014.71 1015.02
1017.65 1018.58 1018.81 1018.29 1018.23 1017.99 1017.74 1017.54 1018.10 1018.37 1017.66 1017.86 1017.07 1012.68 1011.20 1011.21 1011.19 1011.24 1010.45 1010.40 1010.08 1010.20 1010.07 1010.46 1010.85 1010.94 1010.71 1010.91 1010.73 1010.56 1010.61 1010.61 1010.91 1011.09 1011.52 1012.01 1012.41 1012.77 1013.08 1013.23 1013.48 1013.79 1014.08 1014.40
1017.53 1017.93 1018.78 1018.66 1018.76 1018.26 1017.42 1017.54 1017.63 1017.42 1017.75 1016.46 1016.25 1010.28 1010.26 1010.71 1010.94 1010.55 1010.49 1010.26 1009.99 1010.40 1010.23 1010.50 1010.81 1011.00 1010.94 1011.09 1011.04 1010.78 1010.80 1011.13 1011.39 1011.36 1011.62 1011.85 1012.12 1012.32 1012.46 1012.61 1012.88 1013.12 1013.43 1013.67
1017.10 1017.39 1017.67 1017.32 1017.27 1017.08 1017.16 1017.07 1017.17 1017.46 1016.71 1014.50 1014.65 1009.32 1010.74 1010.67 1010.79 1010.98 1010.65 1010.55 1010.07 1009.98 1010.20 1010.56 1010.90 1011.06 1011.01 1011.29 1011.32 1011.21 1011.15 1011.18 1011.36 1011.54 1011.87 1012.06 1012.34 1012.38 1012.47 1012.58 1012.63 1012.69 1012.80 1013.03
1017.66 1017.50 1018.02 1017.75 1017.57 1017.22 1016.68 1016.24 1016.27 1016.29 1014.98 1015.26 1011.17 1011.03 1009.13 1010.37 1010.78 1010.63 1010.62 1011.14 1010.83 1010.64 1010.48 1010.63 1010.78 1010.96 1010.80 1010.91 1011.13 1011.34 1011.51 1011.57 1011.75 1011.96 1012.15 1012.31 1012.52 1012.56 1012.55 1012.76 1012.92 1012.96 1013.09 1013.16
1017.66 1017.80 1018.08 1017.96 1017.88 1017.36 1016.48 1015.83 1015.17 1014.17 1013.42 1013.75 1011.31 1010.48 1008.14 1009.38 1009.65 1010.06 1010.39 1010.98 1010.98 1010.33 1010.32 1010.56 1010.83 1011.09 1010.94 1010.97 1011.34 1011.56 1011.78 1011.87 1011.92 1012.11 1012.36 1012.56 1012.73 1013.07 1013.06 1013.11 1013.32 1013.50 1013.58 1013.64
1017.99 1018.42 1019.07 1018.37 1017.89 1017.44 1015.40 1012.47 1013.25 1013.70 1012.77 1011.96 1010.84 1007.19 1009.41 1009.24 1009.16 1008.99 1009.53 1009.76 1010.09 1010.23 1010.19 1010.43 1010.67 1011.09 1011.10 1011.18 1011.58 1012.04 1012.23 1012.33 1012.41 1012.63 1012.89 1013.06 1013.19 1013.43 1013.58 1013.62 1013.70 1013.96 1014.20 1014.37
1018.29 1019.19 1019.63 1019.24 1018.58 1017.03 1012.42 1012.19 1011.62 1011.26 1010.05 1010.67 1009.55 1007.66 1007.70 1007.77 1008.29 1008.63 1008.41 1008.65 1009.17 1009.63 1010.04 1010.36 1010.79 1011.16 1011.75 1011.99 1012.15 1012.49 1012.79 1012.94 1013.12 1013.29 1013.39 1013.54 1013.63 1013.82 1014.01 1014.13 1014.34 1014.55 1014.72 1015.00
1017.97 1018.91 1019.78 1019.60 1018.21 1015.27 1012.65 1010.61 1011.01 1011.10 1008.42 1008.75 1007.85 1005.77 1005.82 1007.85 1008.36 1007.08 1006.85 1007.74 1008.27 1008.63 1009.05 1010.12 1011.06 1011.69 1012.38 1012.55 1012.86 1013.07 1013.37 1013.58 1013.82 1014.16 1014.20 1014.20 1014.22 1014.29 1014.45 1014.57 1014.74 1015.00 1015.22 1015.43
1017.15 1017.77 1018.88 1018.57 1017.34 1014.27 1008.46 1009.92 1009.33 1009.52 1008.06 1005.39 1006.55 1005.13 1005.04 1007.37 1007.59 1003.64 1007.06 1007.50 1008.31 1008.69 1009.41 1010.55 1011.35 1012.13 1012.69 1013.37 1013.62 1013.75 1014.26 1014.54 1014.87 1014.89 1014.86 1014.84 1014.64 1014.75 1014.84 1015.03 1015.26 1015.56 1015.69 1015.97
1016.93 1017.37 1017.50 1016.91 1016.07 1012.36 1008.64 1009.49 1009.94 1010.18 1006.51 1004.45 1004.14 1002.85 1003.95 1005.19 1003.01 1004.20 1006.00 1007.60 1008.38 1009.23 1010.21 1011.13 1011.97 1012.77 1013.70 1014.06 1014.32 1014.45 1014.92 1015.33 1015.73 1015.79 1015.66 1015.53 1015.26 1015.05 1015.11 1015.34 1015.54 1015.63 1015.87 1016.07
1015.75 1016.12 1015.91 1016.28 1015.69 1011.68 1008.98 1009.54 1009.74 1007.73 1006.04 1005.55 1004.77 1003.69 1003.58 1003.53 1004.32 1005.87 1007.27 1008.42 1009.52 1010.37 1011.41 1012.30 1013.19 1014.25 1014.81 1014.88 1014.60 1015.17 1015.43 1016.08 1016.39 1016.31 1016.15 1015.87 1015.63 1015.62 1015.57 1015.57 1015.86 1015.98 1016.25 1016.51
1014.93 1014.18 1014.28 1013.92 1011.86 1011.02 1010.22 1010.69 1011.61 1010.72 1008.50 1006.84 1006.45 1005.01 1004.54 1004.73 1005.55 1006.53 1008.05 1009.50 1010.60 1011.45 1012.57 1013.37 1014.36 1014.91 1015.67 1015.47 1015.40 1015.84 1016.25 1016.38 1016.65 1016.69 1016.60 1016.42 1016.16 1016.15 1016.02 1015.92 1016.14 1016.32 1016.44 1016.58
1015.31 1015.62 1015.14 1014.55 1012.69 1013.06 1012.47 1012.08 1013.25 1012.69 1010.89 1009.07 1007.75 1006.87 1006.30 1006.04 1006.77 1008.03 1009.15 1010.43 1011.76 1012.75 1013.85 1014.60 1015.51 1015.57 1015.87 1016.36 1016.69 1016.71 1016.80 1016.79 1016.85 1016.97 1017.07 1017.09 1016.88 1016.90 1016.77 1016.58 1016.50 1016.65 1016.81 1016.94
1018.87 1018.36 1018.23 1016.45 1015.50 1015.12 1014.06 1014.74 1015.52 1013.86 1012.84 1010.83 1009.23 1008.40 1007.60 1007.69 1008.49 1009.16 1010.34 1011.91 1013.24 1014.14 1015.06 1015.51 1015.97 1016.48 1017.13 1017.62 1017.84 1017.89 1017.70 1017.54 1017.63 1017.76 1017.77 1017.80 1017.67 1017.63 1017.67 1017.74 1017.62 1017.53 1017.47 1017.37
1022.73 1023.12 1022.59 1021.04 1021.20 1019.80 1017.72 1017.38 1016.69 1015.68 1014.59 1012.62 1011.12 1010.48 1010.19 1010.50 1010.13 1010.71 1012.02 1013.53 1014.33 1015.51 1016.15 1016.75 1017.33 1017.99 1018.79 1019.01 1019.06 1019.16 1018.94 1018.65 1018.68 1019.00 1018.88 1018.57 1018.25 1018.35 1018.41 1018.26 1018.23 1017.96 1017.72 1017.80
Thickness
5551 5557 5576 5587 5582 5590 5590 5592 5596 5611 5620 5620 5622 5640 5654 5658 5658 5664 5668 5669 5675 5681 5692 5692 5691 5692 5691 5690 5690 5690 5688 5686 5682 5677 5672 5670 5672 5670 5670 5670 5669 5668 5663 5660
5544 5566 5577 5568 5571 5576 5579 5583 5589 5600 5611 5608 5615 5629 5648 5649 5654 5668 5674 5674 5679 5680 5685 5691 5693 5691 5692 5693 5693 5689 5688 5686 5684 5681 5676 5674 5671 5671 5672 5670 5667 5665 5662 5660
5555 5566 5570 5564 5561 5564 5570 5575 5583 5589 5596 5605 5608 5617 5644 5652 5655 5667 5674 5686 5687 5692 5692 5693 5692 5695 5697 5694 5692 5691 5690 5690 5688 5683 5677 5672 5670 5668 5667 5665 5663 5663 5663 5661
5538 5557 5561 5560 5564 5564 5564 5574 5576 5578 5578 5576 5596 5597 5637 5652 5656 5662 5679 5688 5691 5692 5696 5700 5698 5697 5700 5703 5695 5694 5691 5690 5688 5685 5679 5676 5674 5671 5670 5669 5665 5663 5661 5660
5545 5546 5551 5554 5567 5560 5567 5569 5566 5566 5564 5570 5583 5579 5633 5646 5655 5666 5682 5689 5697 5700 5700 5704 5704 5705 5704 5705 5704 5700 5696 5692 5688 5686 5684 5678 5676 5675 5670 5668 5665 5660 5658 5656
5538 5547 5550 5557 5558 5561 5556 5552 5551 5547 5548 5547 5599 5577 5625 5647 5653 5669 5679 5687 5694 5701 5704 5708 5709 5710 5710 5706 5703 5700 5696 5694 5689 5685 5684 5683 5677 5672 5668 5667 5666 5661 5659 5656
5530 5539 5543 5550 5548 5549 5549 5539 5539 5540 5539 5561 5593 5566 5619 5645 5657 5667 5680 5685 5692 5695 5702 5705 5705 5703 5708 5708 5703 5699 5696 5695 5691 5687 5683 5683 5681 5675 5672 5669 5666 5663 5661 5661
5525 5524 5532 5539 5543 5543 5541 5544 5541 5539 5538 5568 5556 5567 5619 5643 5666 5680 5682 5684 5685 5690 5695 5701 5705 5705 5707 5710 5707 5704 5697 5697 5692 5688 5686 5682 5681 5679 5676 5674 5671 5668 5668 5665
5515 5524 5536 5537 5538 5541 5534 5542 5549 5537 5471 5517 5550 5587 5617 5628 5639 5655 5671 5681 5682 5686 5690 5695 5700 5699 5702 5707 5709 5707 5702 5698 5694 5690 5686 5682 5680 5680 5680 5677 5671 5670 5668 5665
5517 5521 5524 5527 5532 5539 5541 5542 5529 5530 5532 5525 5554 5567 5604 5624 5630 5645 5664 5676 5674 5676 5680 5688 5691 5693 5696 5700 5706 5704 5702 5698 5695 5691 5686 5684 5680 5677 5675 5673 5671 5670 5668 5662
5516 5509 5498 5520 5524 5532 5529 5530 5531 5538 5531 5540 5554 5585 5604 5621 5631 5641 5655 5663 5664 5668 5672 5678 5683 5684 5687 5689 5694 5697 5698 5694 5690 5687 5682 5676 5675 5675 5671 5669 5670 5667 5663 5659
5509 5497 5482 5506 5517 5523 5532 5538 5537 5535 5544 5536 5531 5589 5617 5615 5617 5621 5637 5645 5655 5659 5663 5665 5666 5669 5676 5676 5681 5685 5686 5688 5686 5684 5680 5676 5671 5668 5666 5666 5663 5661 5658 5654
5500 5492 5487 5485 5495 5503 5520 5526 5531 5541 5530 5547 5531 5610 5615 5609 5611 5619 5620 5631 5643 5648 5654 5654 5656 5658 5662 5665 5669 5674 5675 5673 5672 5674 5673 5671 5668 5666 5665 5664 5661 5658 5654 5651
5495 5483 5490 5501 5508 5520 5519 5526 5527 5525 5530 5559 5553 5610 5601 5604 5610 5607 5612 5618 5630 5640 5644 5644 5643 5646 5649 5651 5654 5658 5661 5662 5662 5661 5659 5659 5657 5657 5656 5655 5654 5653 5651 5647
5481 5481 5478 5495 5495 5501 5512 5519 5521 5520 5540 5528 5585 5580 5608 5601 5598 5603 5602 5601 5613 5624 5631 5632 5634 5636 5639 5642 5643 5643 5645 5647 5647 5647 5646 5645 5644 5644 5645 5642 5640 5638 5635 5633
5470 5466 5477 5483 5482 5492 5497 5511 5517 5534 5542 5534 5564 5572 5619 5599 5597 5595 5596 5594 5601 5617 5622 5623 5624 5626 5630 5632 5631 5631 5632 5634 5634 5634 5634 5633 5631 5628 5629 5628 5625 5621 5618 5616
5453 5461 5464 5460 5481 5470 5489 5534 5528 5523 5535 5550 5551 5603 5597 5588 5593 5599 5594 5597 5602 5606 5611 5614 5615 5614 5615 5616 5613 5613 5614 5616 5617 5617 5615 5615 5614 5614 5612 5610 5608 5604 5601 5597
5432 5429 5413 5416 5443 5450 5530 5524 5535 5533 5549 5546 5559 5584 5595 5597 5596 5589 5598 5596 5595 5594 5596 5599 5599 5599 5596 5595 5596 5597 5596 5597 5598 5598 5598 5597 5598 5596 5594 5593 5591 5587 5584 5580
5443 5433 5401 5396 5383 5477 5502 5542 5524 5516 5545 5556 5564 5593 5600 5580 5576 5591 5603 5595 5598 5598 5597 5591 5585 5581 5577 5578 5578 5580 5579 5580 5579 5578 5579 5579 5579 5577 5577 5576 5574 5570 5566 5562
5441 5442 5427 5371 5383 5433 5561 5535 5536 5529 5524 5589 5570 5587 5595 5566 5565 5622 5585 5586 5585 5585 5580 5573 5569 5567 5565 5560 5561 5563 5560 5559 5558 5558 5559 5559 5561 5560 5560 5558 5554 5550 5548 5543
5430 5424 5424 5434 5410 5455 5529 5529 5522 5499 5559 5585 5593 5608 5597 5580 5617 5615 5587 5574 5570 5565 5560 5554 5551 5547 5543 5544 5544 5544 5542 5540 5537 5538 5540 5541 5543 5545 5543 5540 5537 5536 5532 5529
5435 5431 5435 5433 5437 5459 5511 5514 5524 5548 5554 5562 5573 5592 5592 5597 5597 5574 5564 5553 5547 5544 5538 5534 5529 5523 5523 5526 5532 5529 5528 5522 5520 5522 5524 5527 5529 5528 5528 5527 5523 5520 5517 5513
5433 5450 5458 5460 5477 5482 5488 5478 5469 5480 5517 5542 5543 5560 5573 5577 5563 5554 5542 5534 5528 5525 5518 5514 5508 5507 5504 5508 5513 5512 5509 5509 5508 5510 5510 5511 5513 5512 5512 5512 5509 5506 5503 5500
5426 5393 5433 5454 5456 5437 5444 5453 5445 5456 5481 5502 5517 5527 5543 5553 5541 5529 5522 5516 5507 5503 5496 5492 5488 5492 5490 5488 5489 5492 5493 5495 5497 5496 5495 5493 5493 5494 5495 5495 5494 5492 5488 5485
5366 5368 5378 5431 5424 5422 5436 5423 5418 5441 5456 5476 5496 5502 5519 5521 5515 5513 5506 5494 5486 5480 5474 5475 5473 5471 5468 5468 5468 5470 5475 5478 5480 5479 5478 5478 5477 5476 5475 5474 5474 5474 5472 5472
5311 5313 5345 5392 5352 5361 5387 5394 5403 5420 5434 5453 5471 5480 5483 5488 5493 5491 5481 5471 5467 5458 5457 5452 5450 5448 5445 5448 5451 5452 5455 5459 5461 5460 5460 5461 5462 5459 5458 5458 5458 5463 5464 5461